Dewpoint
-0 -3 -4 -5 -5 -5 -4 -1 2 1 -1 -2 -1 -2 -2 1 1 0 1 2 2 2 0 -1 -1 -2 -4 -5 -6 -6 -5 -4 -4 -4 -3 -5 -5 -4 -4 -5 -5 -6 -7 -9
4 -2 -3 -3 -4 -2 -3 -3 -3 -1 -1 -3 -3 0 1 1 2 1 3 3 2 -0 -1 -1 -1 -3 -4 -5 -7 -7 -7 -6 -5 -5 -5 -4 -4 -5 -5 -6 -6 -8 -10 -10
8 4 4 8 4 -2 -3 -3 -1 2 -1 -3 -0 1 2 2 2 2 2 2 1 -0 -1 -1 -1 -4 -5 -5 -6 -7 -8 -7 -7 -4 -5 -6 -6 -5 -6 -7 -9 -10 -10 -10
7 6 7 -2 -4 -3 -2 -2 -2 -2 -2 0 0 1 1 2 2 2 1 0 -0 -1 -1 -1 -4 -5 -5 -5 -6 -6 -7 -8 -9 -6 -6 -6 -5 -7 -7 -9 -10 -10 -10 -10
9 6 2 -1 -1 0 1 1 -2 1 2 2 2 2 1 2 1 1 1 -0 -1 -2 -5 -7 -8 -6 -4 -5 -6 -6 -6 -8 -7 -7 -6 -6 -7 -7 -8 -10 -10 -11 -10 -10
7 6 6 1 -3 -1 -2 3 3 3 3 3 3 4 2 2 1 -1 -1 -3 -6 -7 -8 -8 -8 -9 -9 -8 -8 -8 -6 -5 -5 -4 -5 -6 -5 -6 -10 -10 -10 -10 -10 -9
5 6 4 -1 -2 -1 3 5 4 3 3 3 2 2 2 -0 -2 -2 -5 -7 -9 -10 -11 -11 -11 -10 -10 -10 -10 -7 -7 -3 -5 -4 -4 -6 -6 -9 -10 -10 -10 -9 -9 -10
6 6 6 -1 1 5 4 3 4 3 3 1 1 1 -1 -4 -5 -7 -10 -11 -12 -13 -12 -12 -11 -11 -10 -10 -10 -9 -6 -5 -4 -4 -5 -6 -8 -9 -10 -10 -9 -9 -9 -11
5 5 0 1 4 4 4 4 3 2 1 1 -1 -4 -5 -6 -9 -11 -12 -13 -13 -13 -13 -12 -11 -10 -10 -10 -9 -7 -5 -4 -4 -4 -5 -6 -7 -9 -10 -9 -9 -9 -10 -10
4 1 -0 3 4 3 3 3 2 -1 -0 -4 -5 -5 -8 -10 -11 -11 -11 -11 -11 -11 -11 -11 -10 -10 -10 -9 -8 -9 -5 -4 -5 -6 -6 -7 -8 -9 -9 -9 -10 -10 -9 -10
2 0 0 4 4 3 3 2 -2 -3 -5 -6 -7 -8 -10 -10 -11 -11 -12 -11 -11 -10 -10 -10 -10 -9 -8 -7 -6 -6 -6 -5 -6 -6 -6 -7 -7 -9 -8 -9 -9 -9 -10 -11
5 4 4 4 3 3 1 -1 -4 -5 -6 -8 -10 -11 -11 -11 -11 -11 -10 -9 -9 -9 -8 -8 -7 -6 -7 -5 -5 -6 -6 -6 -6 -6 -7 -8 -9 -9 -9 -9 -9 -9 -11 -11
3 4 4 3 2 1 -1 -4 -5 -6 -9 -10 -11 -10 -11 -11 -11 -9 -8 -8 -8 -7 -6 -6 -6 -5 -4 -5 -7 -6 -6 -7 -7 -7 -8 -8 -9 -8 -9 -9 -10 -10 -11 -10
3 2 2 2 1 -0 -2 -5 -8 -10 -11 -11 -11 -11 -10 -8 -8 -8 -8 -7 -6 -6 -6 -6 -5 -4 -4 -5 -6 -6 -7 -8 -7 -7 -8 -8 -9 -9 -9 -9 -10 -10 -11 -10
3 2 2 1 -0 -4 -7 -10 -10 -10 -11 -10 -10 -9 -7 -7 -7 -7 -7 -6 -8 -7 -6 -6 -6 -5 -5 -6 -7 -7 -7 -7 -8 -9 -9 -9 -9 -9 -9 -10 -10 -11 -11 -10
1 -1 -3 -5 -8 -9 -10 -10 -10 -10 -10 -9 -8 -7 -8 -11 -11 -11 -9 -8 -8 -7 -7 -7 -6 -6 -6 -6 -7 -7 -8 -7 -8 -9 -9 -9 -9 -9 -10 -10 -10 -11 -11 -11
-1 -5 -7 -8 -8 -9 -9 -9 -8 -7 -7 -7 -7 -10 -11 -12 -12 -11 -9 -9 -7 -7 -7 -6 -6 -7 -7 -7 -7 -8 -8 -8 -9 -9 -9 -9 -9 -10 -10 -10 -10 -11 -11 -11
-5 -7 -8 -9 -9 -9 -9 -7 -7 -7 -7 -8 -10 -11 -11 -11 -10 -10 -9 -8 -7 -7 -6 -6 -7 -8 -8 -8 -8 -9 -9 -9 -9 -9 -9 -9 -10 -10 -10 -10 -11 -11 -11 -11
-8 -9 -9 -10 -9 -8 -9 -11 -10 -9 -10 -11 -11 -11 -9 -9 -9 -9 -8 -7 -6 -6 -6 -8 -8 -8 -8 -9 -9 -10 -9 -9 -9 -9 -10 -10 -10 -10 -10 -10 -10 -11 -11 -12
-9 -9 -10 -12 -14 -16 -13 -11 -10 -10 -11 -10 -9 -9 -9 -8 -6 -6 -7 -6 -6 -6 -7 -8 -9 -9 -10 -10 -9 -9 -10 -9 -9 -9 -10 -10 -10 -10 -9 -10 -11 -11 -11 -11
-8 -11 -11 -11 -15 -15 -12 -11 -9 -10 -11 -10 -8 -7 -8 -8 -6 -6 -7 -7 -6 -6 -8 -8 -8 -9 -8 -8 -9 -10 -10 -9 -10 -10 -10 -10 -10 -10 -10 -10 -10 -11 -11 -11
-10 -11 -13 -13 -12 -12 -10 -9 -9 -10 -9 -7 -6 -5 -6 -6 -6 -6 -6 -6 -6 -6 -6 -7 -7 -8 -8 -8 -9 -10 -10 -10 -10 -10 -10 -10 -10 -10 -10 -10 -11 -11 -11 -11
-16 -15 -11 -9 -7 -8 -8 -8 -9 -7 -5 -5 -5 -5 -6 -6 -6 -6 -6 -6 -7 -6 -7 -7 -7 -7 -8 -8 -9 -10 -10 -10 -10 -10 -10 -10 -10 -10 -10 -10 -10 -11 -11 -11
-9 -9 -8 -8 -10 -8 -8 -7 -6 -5 -6 -6 -5 -5 -6 -7 -7 -6 -6 -7 -7 -7 -7 -6 -7 -8 -8 -9 -9 -9 -10 -10 -10 -10 -10 -10 -10 -10 -10 -10 -11 -11 -10 -11
-10 -9 -9 -8 -6 -6 -6 -6 -6 -5 -5 -5 -6 -6 -7 -7 -7 -7 -7 -7 -7 -7 -7 -7 -7 -8 -8 -8 -8 -9 -9 -10 -10 -10 -10 -11 -11 -11 -10 -10 -10 -11 -11 -11
-7 -6 -6 -6 -6 -7 -7 -5 -4 -5 -5 -6 -6 -7 -7 -7 -7 -7 -7 -7 -7 -7 -7 -7 -7 -7 -7 -7 -8 -9 -9 -10 -10 -10 -10 -11 -11 -11 -11 -11 -11 -11 -11 -11
-6 -6 -5 -5 -6 -6 -5 -5 -5 -5 -6 -7 -8 -8 -8 -8 -8 -7 -7 -7 -7 -7 -6 -6 -6 -6 -7 -7 -8 -8 -9 -10 -10 -10 -11 -11 -12 -13 -12 -12 -11 -11 -11 -11
Wind_Speed
6 9 9 10 13 13 15 13 11 12 15 12 6 8 13 22 23 19 21 15 14 15 19 21 18 14 16 18 20 20 22 20 19 20 16 22 21 19 17 16 16 20 21 21
3 6 9 16 17 11 8 11 11 9 12 12 13 17 18 18 18 20 16 17 20 18 18 17 13 16 18 20 22 23 23 24 24 21 20 14 18 17 17 19 18 20 21 21
3 9 10 3 2 11 11 10 7 7 9 9 15 17 18 17 16 15 15 20 22 18 18 16 16 17 21 23 21 22 26 25 20 18 14 22 21 19 18 20 20 20 21 21
3 4 2 7 14 6 8 10 13 12 8 16 16 17 16 12 11 14 18 18 16 17 17 19 22 24 24 22 22 24 25 25 24 19 17 16 17 19 19 19 20 21 20 20
1 3 10 9 9 4 6 11 9 11 16 18 19 18 4 12 17 17 16 17 19 21 21 24 25 25 26 27 28 29 27 30 23 20 14 14 17 19 18 19 20 20 17 23
2 2 3 4 10 6 7 6 11 13 13 12 19 10 9 16 19 18 16 17 21 23 25 26 26 27 29 29 30 31 32 20 20 18 19 13 16 17 18 18 19 21 26 26
5 4 6 8 9 5 4 3 10 8 6 13 6 7 15 15 16 16 18 21 24 27 27 28 30 30 30 32 32 30 37 25 13 14 19 14 12 16 17 19 20 21 26 28
3 3 6 4 7 2 5 13 6 8 6 5 4 7 11 15 17 19 22 25 26 28 29 27 28 30 30 29 32 34 31 30 22 16 15 10 12 15 17 18 18 22 27 27
9 5 9 6 10 4 2 8 7 7 3 4 6 9 13 16 20 22 24 26 27 27 29 30 30 28 28 32 29 29 34 25 19 12 14 8 13 15 17 17 19 23 25 23
3 8 13 6 9 10 9 5 4 3 1 4 8 11 16 19 23 25 26 27 25 28 30 29 28 29 32 30 30 36 28 17 16 21 11 10 14 14 17 17 22 23 22 25
10 14 8 11 10 4 5 6 2 1 3 7 12 15 18 21 24 25 26 26 30 29 29 31 32 28 27 28 29 30 23 23 23 12 9 13 16 15 17 18 19 22 22 23
7 2 1 5 2 4 4 4 2 3 7 10 13 16 19 22 23 24 26 28 29 30 31 32 30 28 27 23 25 30 24 23 18 9 12 18 16 13 16 19 19 19 21 21
1 5 5 5 4 4 6 3 3 6 9 13 14 17 19 21 22 25 26 28 29 31 32 30 29 26 22 23 32 24 20 11 8 11 14 15 15 15 17 18 18 19 20 21
8 6 4 3 3 7 5 4 5 8 11 14 16 17 18 19 22 25 26 28 28 30 32 32 29 28 22 29 28 16 13 11 11 10 12 13 13 14 15 17 20 19 18 19
8 2 2 5 6 5 3 5 8 12 14 15 15 16 17 20 26 27 28 25 35 34 29 28 25 24 26 25 15 8 9 10 11 13 10 11 12 14 14 18 17 18 16 18
8 7 6 4 2 2 5 8 11 13 15 15 16 18 21 27 28 31 28 31 31 34 31 29 25 24 20 12 9 7 8 12 14 12 12 11 12 13 17 16 17 16 16 17
11 8 3 1 3 5 8 11 11 13 16 18 18 25 27 28 31 33 32 32 30 30 26 23 20 20 11 9 7 8 7 12 14 12 12 11 12 15 14 16 16 16 16 19
4 5 1 2 5 9 11 12 16 16 19 22 24 26 29 31 31 34 31 31 30 26 22 18 17 12 8 8 10 10 14 13 11 12 11 11 11 14 15 14 16 16 16 18
4 1 3 6 8 11 15 19 17 20 21 22 25 29 31 32 32 28 27 27 27 22 18 17 10 9 11 11 12 9 10 11 12 12 11 11 13 13 14 14 16 17 17 16
1 3 8 12 15 17 18 17 19 21 20 22 26 29 33 32 28 26 23 26 22 19 17 13 11 13 13 13 12 10 10 10 11 11 11 12 13 14 15 17 16 16 16 16
10 15 17 19 20 19 18 20 21 21 21 25 27 31 31 29 26 22 23 26 21 19 14 13 14 11 7 12 16 15 11 13 13 12 12 12 13 14 14 15 16 16 16 16
14 18 21 20 21 21 20 21 21 23 27 27 27 30 29 29 27 23 21 23 21 18 17 16 15 14 14 16 19 14 13 15 15 15 15 14 15 16 17 17 16 16 15 17
19 19 18 18 19 23 25 24 22 20 24 26 29 26 27 29 25 22 24 24 25 20 19 19 15 17 19 20 21 17 14 15 16 18 20 19 17 17 17 17 18 19 17 15
18 19 20 22 23 22 21 18 18 19 25 27 28 26 27 25 25 22 25 27 26 23 22 20 18 16 16 18 20 18 16 16 18 20 20 18 19 17 15 16 16 17 19 18
20 21 22 19 16 19 19 21 24 21 24 28 27 28 25 23 27 29 27 26 25 25 23 21 19 19 21 20 20 18 18 19 20 22 20 20 18 17 17 16 16 16 17 19
19 19 20 19 20 21 24 22 23 28 30 32 30 28 27 28 27 28 28 24 23 23 22 23 23 23 24 25 24 22 21 21 22 23 20 20 20 18 17 17 16 16 14 18
22 20 18 19 20 24 23 25 27 30 28 28 28 24 24 24 24 23 23 23 24 23 23 21 22 25 26 26 26 24 22 21 21 21 21 21 20 17 17 16 17 17 15 13
Wind_Direction
318 315 313 313 310 297 288 283 272 279 282 310 16 318 354 34 15 6 357 359 355 343 331 321 311 309 311 306 314 309 311 307 308 298 310 318 313 307 306 302 304 307 316 311
267 284 333 309 303 281 300 322 288 332 316 334 320 40 19 2 356 351 2 339 328 325 320 317 309 310 308 311 310 314 311 302 300 296 305 303 304 305 304 305 307 313 312 312
264 357 323 316 242 323 304 315 305 291 300 9 28 10 351 357 358 2 355 334 327 325 320 312 312 314 310 306 305 309 310 305 305 297 298 307 302 298 302 309 310 312 312 313
276 316 323 355 325 360 343 352 343 320 339 35 4 360 15 39 11 341 332 329 323 318 315 309 308 306 306 305 305 306 301 296 294 283 294 299 296 301 303 305 311 310 312 303
262 264 301 298 53 10 354 316 327 26 8 1 357 351 333 9 344 327 320 315 310 308 312 310 313 313 307 300 307 302 303 300 302 292 286 292 296 303 303 311 310 312 302 301
141 243 261 309 359 35 302 257 24 21 29 11 345 325 330 329 329 330 333 321 316 313 319 322 324 327 327 323 319 311 314 292 298 290 293 293 299 301 312 310 312 304 305 307
218 245 273 286 338 320 286 359 21 34 33 352 341 300 309 324 334 322 318 321 325 326 326 326 324 325 327 321 319 318 313 314 322 295 297 298 295 301 309 307 309 307 307 313
198 238 263 33 2 130 332 330 38 14 360 347 331 323 324 326 324 323 324 325 326 328 324 324 325 321 318 320 324 325 312 310 290 300 295 300 311 306 308 310 307 304 308 315
178 215 214 68 135 121 22 76 15 346 329 349 345 327 323 322 321 322 325 326 326 325 325 323 319 318 326 327 328 327 323 316 320 301 288 297 298 306 311 306 300 306 315 323
239 247 272 41 78 90 20 9 349 301 308 310 309 317 322 324 325 327 327 324 325 326 319 317 320 326 325 323 321 321 320 307 302 298 302 311 290 290 305 301 306 314 315 319
281 286 292 88 110 37 348 326 140 203 288 311 324 327 325 327 326 327 326 327 325 319 318 319 318 319 321 321 319 319 316 315 317 310 306 281 293 308 300 303 307 311 316 320
273 5 192 147 218 323 294 165 206 286 321 326 323 324 327 327 325 325 325 322 321 320 320 318 318 313 314 309 316 317 316 314 310 308 293 301 305 299 293 303 314 316 322 326
353 124 149 172 175 184 163 199 270 314 318 320 328 328 324 323 323 321 321 320 319 316 315 316 315 314 307 302 317 311 315 310 289 290 301 301 304 302 306 311 320 325 327 326
140 140 116 194 174 179 204 256 306 313 321 326 323 321 320 320 317 318 317 315 315 314 308 307 308 308 301 313 313 310 303 299 306 305 299 302 300 304 313 320 323 326 328 326
170 218 148 146 154 191 240 310 321 322 322 321 320 317 318 315 315 315 317 318 318 323 322 319 314 306 306 309 310 297 291 306 302 307 310 307 307 312 313 314 319 323 329 325
163 152 144 149 173 290 312 320 321 319 317 314 308 312 310 318 321 325 329 324 326 325 324 320 320 314 314 305 302 302 328 301 302 306 308 305 306 304 308 314 316 319 323 316
158 165 166 230 292 309 314 314 308 306 305 303 304 313 318 322 323 328 326 327 327 325 324 321 319 315 301 307 302 310 307 286 297 302 301 304 300 306 309 310 313 318 320 317
146 120 124 318 314 313 310 302 298 301 302 306 311 314 318 323 322 324 325 327 327 329 328 328 321 317 310 297 284 277 272 294 307 311 309 307 303 298 309 317 319 318 317 315
128 91 336 321 314 299 294 302 304 306 310 314 316 318 317 317 317 319 324 328 327 326 316 323 324 316 306 301 302 307 300 304 306 306 306 304 307 312 313 309 312 310 315 319
120 321 307 304 307 313 310 308 309 309 313 315 316 315 315 317 318 319 327 325 320 312 312 318 316 317 326 332 314 311 296 304 311 309 310 307 307 307 304 307 312 315 317 316
288 307 314 315 317 313 309 309 306 305 310 314 315 315 316 318 318 320 321 316 312 304 305 306 307 307 281 294 304 311 306 296 304 299 298 299 300 307 307 305 305 311 311 315
302 302 304 305 306 308 312 312 310 310 311 312 316 318 316 318 317 311 306 306 315 291 297 301 305 300 290 291 301 298 279 284 292 297 298 296 294 296 300 303 305 305 307 307
302 302 301 304 304 305 307 308 310 312 312 312 315 310 309 312 309 304 318 309 316 288 288 293 300 287 289 293 298 298 285 282 285 287 287 288 287 284 287 291 294 300 303 302
303 301 298 298 302 303 307 315 317 308 306 307 308 305 308 321 318 313 308 310 306 293 288 287 290 290 295 303 305 295 284 286 285 289 291 288 283 285 283 288 293 297 298 305
293 294 297 303 304 302 303 298 298 300 306 309 308 314 315 310 309 307 309 307 303 305 286 283 287 286 292 295 304 302 287 284 282 287 286 282 289 285 282 273 275 284 290 295
301 296 293 287 285 294 298 297 292 300 309 312 311 309 307 308 310 307 310 309 308 304 292 288 292 291 290 289 295 299 287 280 280 285 286 283 289 290 286 282 281 281 281 291
289 288 286 288 294 301 299 296 297 302 310 315 314 321 316 317 319 318 315 312 312 310 301 293 293 293 290 287 286 291 290 276 276 279 283 286 291 288 288 286 282 284 284 275
Height
1533 1531 1531 1531 1531 1528 1529 1528 1537 1530 1527 1525 1528 1528 1529 1532 1533 1533 1533 1534 1534 1532 1530 1527 1526 1524 1523 1521 1519 1516 1513 1511 1509 1503 1500 1498 1496 1493 1490 1487 1484 1482 1480 1477
1545 1531 1533 1536 1530 1527 1524 1523 1519 1523 1527 1525 1526 1528 1531 1534 1535 1535 1535 1536 1535 1531 1528 1525 1524 1523 1521 1518 1515 1514 1511 1507 1503 1499 1496 1494 1492 1490 1487 1484 1481 1478 1475 1473
1550 1547 1546 1544 1535 1526 1524 1524 1525 1532 1526 1524 1530 1534 1535 1534 1536 1536 1535 1535 1532 1529 1527 1524 1522 1519 1517 1514 1511 1509 1506 1502 1499 1494 1491 1489 1488 1486 1483 1480 1477 1474 1471 1469
1560 1557 1553 1524 1523 1523 1524 1524 1525 1525 1524 1531 1535 1536 1535 1537 1537 1536 1534 1533 1530 1528 1525 1522 1520 1515 1512 1509 1505 1502 1499 1494 1491 1486 1485 1483 1484 1482 1479 1476 1473 1470 1468 1464
1559 1551 1539 1526 1523 1529 1531 1533 1527 1528 1532 1535 1536 1533 1536 1536 1536 1535 1533 1530 1527 1524 1522 1518 1515 1512 1507 1504 1500 1495 1493 1488 1485 1482 1478 1478 1479 1478 1475 1472 1469 1466 1463 1460
1562 1563 1552 1526 1525 1529 1529 1534 1533 1535 1536 1540 1540 1539 1538 1537 1534 1531 1529 1528 1525 1522 1519 1516 1512 1507 1503 1500 1495 1490 1485 1478 1474 1479 1477 1472 1472 1472 1470 1469 1466 1461 1459 1456
1554 1558 1545 1528 1528 1530 1538 1540 1538 1539 1539 1539 1540 1542 1539 1535 1532 1530 1528 1526 1523 1519 1516 1512 1508 1504 1500 1497 1492 1486 1479 1477 1470 1470 1473 1467 1467 1468 1467 1465 1462 1457 1455 1452
1553 1555 1548 1528 1531 1541 1535 1535 1537 1538 1538 1537 1537 1537 1535 1533 1531 1528 1525 1522 1519 1515 1512 1507 1505 1502 1497 1492 1488 1481 1478 1474 1469 1466 1468 1465 1465 1464 1463 1461 1458 1453 1451 1447
1538 1535 1526 1526 1532 1533 1534 1534 1536 1537 1537 1534 1535 1534 1532 1530 1527 1525 1522 1518 1515 1512 1508 1505 1501 1497 1492 1487 1482 1476 1472 1467 1466 1462 1462 1461 1462 1461 1459 1457 1453 1450 1448 1445
1524 1521 1523 1524 1528 1531 1533 1533 1533 1535 1535 1534 1533 1531 1529 1527 1525 1522 1519 1515 1511 1507 1504 1500 1496 1491 1488 1483 1477 1472 1468 1464 1462 1460 1458 1459 1458 1458 1456 1453 1451 1449 1445 1442
1517 1516 1519 1523 1526 1528 1530 1530 1530 1532 1533 1532 1530 1529 1527 1525 1523 1519 1516 1512 1509 1504 1499 1494 1490 1485 1482 1477 1472 1469 1465 1462 1459 1457 1457 1455 1454 1454 1452 1450 1449 1446 1442 1439
1516 1516 1517 1522 1523 1525 1526 1528 1529 1530 1530 1529 1528 1526 1524 1522 1519 1515 1511 1508 1504 1500 1494 1489 1484 1479 1477 1472 1468 1464 1461 1458 1456 1454 1454 1452 1451 1451 1450 1448 1445 1443 1439 1436
1514 1515 1517 1519 1521 1522 1525 1527 1528 1528 1527 1526 1525 1523 1521 1518 1516 1512 1509 1504 1499 1494 1489 1484 1479 1474 1471 1466 1462 1460 1457 1455 1454 1453 1451 1450 1449 1448 1446 1444 1442 1439 1436 1433
1513 1515 1517 1518 1520 1522 1524 1525 1525 1525 1525 1523 1521 1519 1517 1514 1512 1508 1504 1498 1493 1487 1481 1477 1473 1468 1464 1461 1457 1455 1454 1453 1451 1450 1448 1447 1446 1445 1444 1442 1439 1437 1434 1431
1514 1515 1516 1517 1519 1521 1522 1523 1523 1522 1521 1520 1519 1517 1514 1510 1506 1502 1497 1491 1485 1479 1474 1469 1465 1462 1459 1455 1453 1452 1451 1450 1449 1446 1445 1445 1444 1443 1442 1440 1438 1435 1433 1430
1513 1515 1516 1517 1518 1520 1521 1521 1520 1520 1519 1517 1515 1512 1509 1505 1500 1495 1491 1486 1480 1473 1469 1465 1460 1457 1453 1451 1450 1450 1450 1448 1447 1445 1443 1443 1442 1441 1439 1438 1435 1433 1431 1429
1512 1514 1516 1517 1518 1519 1518 1518 1517 1516 1514 1512 1510 1507 1503 1498 1493 1488 1484 1479 1474 1469 1464 1460 1456 1453 1450 1449 1449 1448 1448 1446 1444 1442 1441 1440 1439 1438 1437 1435 1433 1431 1429 1426
1512 1514 1516 1517 1517 1517 1516 1515 1513 1511 1509 1507 1504 1500 1497 1493 1488 1482 1478 1473 1469 1464 1460 1456 1453 1450 1449 1448 1447 1446 1444 1442 1441 1440 1439 1438 1437 1436 1435 1433 1431 1429 1427 1424
1512 1514 1515 1516 1515 1513 1512 1510 1508 1506 1504 1502 1498 1494 1490 1487 1482 1477 1473 1469 1465 1461 1457 1454 1451 1449 1448 1446 1443 1442 1442 1440 1439 1438 1437 1436 1434 1433 1432 1430 1429 1426 1424 1422
1511 1512 1512 1512 1510 1508 1506 1506 1504 1501 1499 1496 1493 1489 1484 1480 1476 1472 1469 1465 1462 1459 1454 1451 1449 1447 1445 1443 1442 1440 1439 1438 1437 1436 1434 1433 1432 1430 1429 1427 1425 1423 1421 1419
1508 1508 1507 1506 1505 1504 1503 1501 1498 1496 1494 1491 1488 1483 1478 1473 1470 1467 1464 1461 1458 1454 1452 1449 1447 1445 1443 1442 1440 1438 1437 1436 1434 1433 1432 1430 1429 1428 1426 1424 1422 1420 1418 1417
1506 1505 1503 1502 1501 1499 1497 1496 1493 1491 1488 1486 1483 1479 1473 1469 1465 1462 1461 1457 1453 1451 1448 1445 1443 1442 1440 1438 1437 1435 1434 1432 1431 1430 1428 1427 1425 1424 1422 1420 1419 1417 1415 1413
1501 1500 1499 1498 1496 1494 1492 1491 1488 1486 1483 1480 1477 1473 1470 1465 1461 1457 1454 1453 1449 1446 1444 1441 1440 1438 1436 1434 1432 1430 1429 1428 1427 1425 1424 1422 1421 1419 1418 1416 1415 1413 1411 1409
1497 1496 1495 1493 1491 1489 1486 1485 1483 1481 1479 1475 1471 1468 1465 1459 1455 1453 1450 1447 1444 1441 1438 1436 1435 1433 1431 1429 1427 1425 1424 1423 1422 1420 1419 1417 1415 1414 1413 1412 1410 1409 1407 1405
1493 1492 1490 1488 1486 1484 1482 1481 1478 1475 1472 1469 1465 1462 1458 1456 1452 1447 1444 1440 1437 1433 1430 1430 1429 1428 1426 1424 1422 1420 1419 1418 1417 1415 1413 1411 1410 1408 1407 1407 1406 1405 1403 1401
1487 1486 1485 1484 1482 1480 1478 1475 1472 1469 1465 1461 1458 1455 1452 1449 1445 1441 1437 1434 1430 1427 1424 1423 1421 1420 1419 1418 1416 1414 1413 1411 1410 1409 1408 1406 1404 1403 1402 1401 1400 1399 1398 1397
1482 1482 1481 1479 1478 1476 1472 1469 1465 1462 1459 1456 1450 1448 1445 1442 1438 1434 1431 1427 1424 1421 1418 1417 1415 1414 1412 1410 1409 1407 1406 1405 1404 1403 1402 1401 1399 1398 1396 1395 1394 1393 1392 1392